Time,TemperatureF,DewpointF,PressureIn,WindDirection,WindDirectionDegrees,WindSpeedMPH,WindSpeedGustMPH,Humidity,HourlyPrecipIn,Conditions,Clouds,dailyrainin,SoftwareType,DateUTC
2013-06-08 00:11:00,61.9,60.0,29.71,NE,35,0.0,-999.0,93,-99.99,,,0.00,weatherlink.com 1.10,2013-06-08 04:11:00,
2013-06-08 00:26:00,61.8,60.0,29.71,NE,35,0.0,-999.0,93,-99.99,,,0.00,weatherlink.com 1.10,2013-06-08 04:26:00,
2013-06-08 00:41:00,61.9,60.0,29.71,NE,35,0.0,-999.0,93,-99.99,,,0.00,weatherlink.com 1.10,2013-06-08 04:41:00,
2013-06-08 00:56:00,61.9,60.0,29.71,NE,35,0.0,-999.0,93,-99.99,,,0.00,weatherlink.com 1.10,2013-06-08 04:56:00,
2013-06-08 01:11:00,61.9,60.0,29.70,NE,35,0.0,-999.0,93,-99.99,,,0.00,weatherlink.com 1.10,2013-06-08 05:11:00,
2013-06-08 01:26:00,61.8,60.0,29.70,NE,35,0.0,-999.0,93,-99.99,,,0.00,weatherlink.com 1.10,2013-06-08 05:26:00,
2013-06-08 01:41:00,61.8,60.0,29.70,NE,35,0.0,-999.0,93,-99.99,,,0.00,weatherlink.com 1.10,2013-06-08 05:41:00,
2013-06-08 01:56:00,61.7,60.0,29.70,NE,35,0.0,-999.0,93,-99.99,,,0.00,weatherlink.com 1.10,2013-06-08 05:56:00,
2013-06-08 02:11:00,61.6,60.0,29.70,NE,35,0.0,-999.0,93,-99.99,,,0.00,weatherlink.com 1.10,2013-06-08 06:11:00,
2013-06-08 02:26:00,61.4,59.0,29.71,NE,35,0.0,-999.0,93,-99.99,,,0.00,weatherlink.com 1.10,2013-06-08 06:26:00,
2013-06-08 02:41:00,61.5,60.0,29.71,SSW,205,0.0,-999.0,93,-99.99,,,0.00,weatherlink.com 1.10,2013-06-08 06:41:00,
2013-06-08 02:56:00,61.5,59.0,29.72,SSW,205,0.0,-999.0,92,-99.99,,,0.00,weatherlink.com 1.10,2013-06-08 06:56:00,
2013-06-08 03:11:00,61.5,59.0,29.72,SSW,213,0.0,-999.0,92,-99.99,,,0.00,weatherlink.com 1.10,2013-06-08 07:11:00,
2013-06-08 03:26:00,61.4,59.0,29.72,SSW,213,0.0,-999.0,92,-99.99,,,0.00,weatherlink.com 1.10,2013-06-08 07:26:00,
2013-06-08 03:41:00,61.5,59.0,29.73,SW,235,0.0,-999.0,92,-99.99,,,0.00,weatherlink.com 1.10,2013-06-08 07:41:00,
2013-06-08 03:56:00,61.5,59.0,29.74,SSW,210,0.0,-999.0,92,-99.99,,,0.00,weatherlink.com 1.10,2013-06-08 07:56:00,
2013-06-08 04:11:00,61.6,59.0,29.74,SSW,210,0.0,-999.0,92,-99.99,,,0.00,weatherlink.com 1.10,2013-06-08 08:11:00,
2013-06-08 04:26:00,61.7,59.0,29.75,SSW,210,0.0,-999.0,92,-99.99,,,0.00,weatherlink.com 1.10,2013-06-08 08:26:00,
2013-06-08 04:42:00,61.7,59.0,29.75,SSW,210,0.0,-999.0,92,-99.99,,,0.00,weatherlink.com 1.10,2013-06-08 08:42:00,
2013-06-08 04:56:00,61.8,60.0,29.75,SSW,210,0.0,-999.0,92,-99.99,,,0.00,weatherlink.com 1.10,2013-06-08 08:56:00,
2013-06-08 05:12:00,61.7,60.0,29.76,SSW,210,0.0,-999.0,93,-99.99,,,0.00,weatherlink.com 1.10,2013-06-08 09:12:00,
2013-06-08 05:27:00,61.7,60.0,29.77,WNW,288,0.0,-999.0,93,-99.99,,,0.00,weatherlink.com 1.10,2013-06-08 09:27:00,
2013-06-08 05:42:00,62.0,60.0,29.78,West,275,0.0,-999.0,93,-99.99,,,0.00,weatherlink.com 1.10,2013-06-08 09:42:00,
2013-06-08 05:57:00,62.1,60.0,29.79,West,275,0.0,-999.0,93,-99.99,,,0.00,weatherlink.com 1.10,2013-06-08 09:57:00,
2013-06-08 06:12:00,62.4,60.0,29.80,West,271,0.0,-999.0,93,-99.99,,,0.00,weatherlink.com 1.10,2013-06-08 10:12:00,
2013-06-08 06:27:00,62.7,60.0,29.81,SW,221,1.0,-999.0,92,-99.99,,,0.00,weatherlink.com 1.10,2013-06-08 10:27:00,
2013-06-08 06:42:00,62.9,60.0,29.83,SW,221,1.0,-999.0,91,-99.99,,,0.00,weatherlink.com 1.10,2013-06-08 10:42:00,
2013-06-08 06:57:00,63.2,60.0,29.84,WSW,258,0.0,-999.0,90,-99.99,,,0.00,weatherlink.com 1.10,2013-06-08 10:57:00,
2013-06-08 07:12:00,63.4,60.0,29.84,WSW,238,0.0,-999.0,89,-99.99,,,0.00,weatherlink.com 1.10,2013-06-08 11:12:00,
2013-06-08 07:27:00,63.7,60.0,29.84,SW,223,0.0,-999.0,88,-99.99,,,0.00,weatherlink.com 1.10,2013-06-08 11:27:00,
2013-06-08 07:42:00,64.0,60.0,29.84,SW,223,3.0,-999.0,88,-99.99,,,0.00,weatherlink.com 1.10,2013-06-08 11:42:00,
2013-06-08 07:57:00,64.2,61.0,29.85,WSW,240,0.0,-999.0,88,-99.99,,,0.00,weatherlink.com 1.10,2013-06-08 11:57:00,
2013-06-08 08:12:00,64.4,61.0,29.85,WSW,240,2.0,-999.0,88,-99.99,,,0.00,weatherlink.com 1.10,2013-06-08 12:12:00,
2013-06-08 08:27:00,64.8,61.0,29.86,SW,234,3.0,-999.0,86,-99.99,,,0.00,weatherlink.com 1.10,2013-06-08 12:27:00,
2013-06-08 08:42:00,65.0,60.0,29.87,WSW,239,0.0,-999.0,85,-99.99,,,0.00,weatherlink.com 1.10,2013-06-08 12:42:00,
2013-06-08 08:57:00,65.0,60.0,29.87,West,266,3.0,-999.0,85,-99.99,,,0.00,weatherlink.com 1.10,2013-06-08 12:57:00,
2013-06-08 09:12:00,65.0,60.0,29.88,WSW,258,4.0,-999.0,84,-99.99,,,0.00,weatherlink.com 1.10,2013-06-08 13:12:00,
2013-06-08 09:27:00,65.5,60.0,29.88,West,277,5.0,-999.0,83,-99.99,,,0.00,weatherlink.com 1.10,2013-06-08 13:27:00,
2013-06-08 09:42:00,66.1,60.0,29.89,West,268,1.0,-999.0,81,-99.99,,,0.00,weatherlink.com 1.10,2013-06-08 13:42:00,
2013-06-08 09:57:00,66.4,61.0,29.89,West,271,2.0,-999.0,82,-99.99,,,0.00,weatherlink.com 1.10,2013-06-08 13:57:00,
2013-06-08 10:12:00,67.0,61.0,29.89,NW,319,3.0,-999.0,81,-99.99,,,0.00,weatherlink.com 1.10,2013-06-08 14:12:00,
2013-06-08 10:27:00,67.4,61.0,29.90,WSW,244,3.0,-999.0,79,-99.99,,,0.00,weatherlink.com 1.10,2013-06-08 14:27:00,
2013-06-08 10:42:00,68.5,61.0,29.90,WNW,302,5.0,-999.0,77,-99.99,,,0.00,weatherlink.com 1.10,2013-06-08 14:42:00,
2013-06-08 10:57:00,68.3,61.0,29.91,WSW,256,1.0,-999.0,77,-99.99,,,0.00,weatherlink.com 1.10,2013-06-08 14:57:00,
2013-06-08 11:12:00,68.5,61.0,29.91,WNW,289,0.0,-999.0,77,-99.99,,,0.00,weatherlink.com 1.10,2013-06-08 15:12:00,
2013-06-08 11:27:00,68.4,61.0,29.91,WSW,240,2.0,-999.0,77,-99.99,,,0.00,weatherlink.com 1.10,2013-06-08 15:27:00,
2013-06-08 11:42:00,68.8,62.0,29.91,SSW,192,2.0,-999.0,78,-99.99,,,0.00,weatherlink.com 1.10,2013-06-08 15:42:00,
2013-06-08 11:57:00,69.2,62.0,29.92,WSW,257,3.0,-999.0,77,-99.99,,,0.00,weatherlink.com 1.10,2013-06-08 15:57:00,
2013-06-08 12:13:00,68.9,61.0,29.92,SSW,199,2.0,-999.0,77,-99.99,,,0.00,weatherlink.com 1.10,2013-06-08 16:13:00,
2013-06-08 12:28:00,68.3,62.0,29.92,SW,229,0.0,-999.0,79,-99.99,,,0.00,weatherlink.com 1.10,2013-06-08 16:28:00,
2013-06-08 12:43:00,68.2,61.0,29.93,SSW,205,4.0,-999.0,79,-99.99,,,0.00,weatherlink.com 1.10,2013-06-08 16:43:00,
2013-06-08 12:58:00,67.7,61.0,29.93,West,273,4.0,-999.0,79,-99.99,,,0.00,weatherlink.com 1.10,2013-06-08 16:58:00,
2013-06-08 13:13:00,67.3,61.0,29.93,WNW,295,0.0,-999.0,80,-99.99,,,0.00,weatherlink.com 1.10,2013-06-08 17:13:00,
2013-06-08 13:28:00,67.1,61.0,29.93,West,275,1.0,-999.0,80,-99.99,,,0.00,weatherlink.com 1.10,2013-06-08 17:28:00,
2013-06-08 13:40:00,67.2,60.8,29.93,NW,321,1.0,3.0,80,0.00,,,0.00,Wunderground v.1.15,2013-06-08 17:40:00,
2013-06-08 13:43:00,67.2,61.0,29.93,West,270,1.0,-999.0,80,-99.99,,,0.00,weatherlink.com 1.10,2013-06-08 17:43:00,
2013-06-08 13:45:00,67.2,60.8,29.93,West,271,1.0,3.0,80,0.00,,,0.00,Wunderground v.1.15,2013-06-08 17:45:00,
2013-06-08 13:50:00,67.2,60.8,29.93,WNW,298,1.0,1.0,80,0.00,,,0.00,Wunderground v.1.15,2013-06-08 17:50:00,
2013-06-08 13:59:00,67.4,61.0,29.93,WSW,237,1.0,-999.0,80,-99.99,,,0.00,weatherlink.com 1.10,2013-06-08 17:59:00,
2013-06-08 14:13:00,68.3,62.0,29.93,SW,214,2.0,-999.0,79,-99.99,,,0.00,weatherlink.com 1.10,2013-06-08 18:13:00,
2013-06-08 14:28:00,68.8,62.0,29.93,NW,316,2.0,-999.0,78,-99.99,,,0.00,weatherlink.com 1.10,2013-06-08 18:28:00,
2013-06-08 14:43:00,69.4,62.0,29.94,SW,217,0.0,-999.0,77,-99.99,,,0.00,weatherlink.com 1.10,2013-06-08 18:43:00,
2013-06-08 14:58:00,69.8,62.0,29.94,SW,223,2.0,-999.0,76,-99.99,,,0.00,weatherlink.com 1.10,2013-06-08 18:58:00,
2013-06-08 15:13:00,70.8,62.0,29.94,West,281,0.0,-999.0,74,-99.99,,,0.00,weatherlink.com 1.10,2013-06-08 19:13:00,
2013-06-08 15:28:00,71.5,62.0,29.93,West,280,0.0,-999.0,72,-99.99,,,0.00,weatherlink.com 1.10,2013-06-08 19:28:00,
2013-06-08 15:43:00,71.9,62.0,29.94,SW,225,1.0,-999.0,72,-99.99,,,0.00,weatherlink.com 1.10,2013-06-08 19:43:00,
2013-06-08 15:58:00,72.0,63.0,29.95,WNW,285,1.0,-999.0,73,-99.99,,,0.00,weatherlink.com 1.10,2013-06-08 19:58:00,
2013-06-08 16:13:00,73.1,62.0,29.94,NW,305,1.0,-999.0,69,-99.99,,,0.00,weatherlink.com 1.10,2013-06-08 20:13:00,
2013-06-08 16:28:00,74.4,62.0,29.94,NW,315,3.0,-999.0,65,-99.99,,,0.00,weatherlink.com 1.10,2013-06-08 20:28:00,
2013-06-08 16:43:00,74.0,61.0,29.95,WSW,245,4.0,-999.0,65,-99.99,,,0.00,weatherlink.com 1.10,2013-06-08 20:43:00,
2013-06-08 16:58:00,73.3,61.0,29.95,WSW,250,2.0,-999.0,66,-99.99,,,0.00,weatherlink.com 1.10,2013-06-08 20:58:00,
2013-06-08 17:13:00,74.4,61.0,29.96,West,268,4.0,-999.0,64,-99.99,,,0.00,weatherlink.com 1.10,2013-06-08 21:13:00,
2013-06-08 17:28:00,75.0,61.0,29.96,West,273,2.0,-999.0,62,-99.99,,,0.00,weatherlink.com 1.10,2013-06-08 21:28:00,
2013-06-08 17:43:00,75.3,61.0,29.96,North,360,0.0,-999.0,61,-99.99,,,0.00,weatherlink.com 1.10,2013-06-08 21:43:00,
2013-06-08 17:58:00,76.5,61.0,29.96,NW,304,1.0,-999.0,59,-99.99,,,0.00,weatherlink.com 1.10,2013-06-08 21:58:00,
2013-06-08 18:13:00,75.3,60.0,29.96,West,268,1.0,-999.0,60,-99.99,,,0.00,weatherlink.com 1.10,2013-06-08 22:13:00,
2013-06-08 18:28:00,74.5,60.0,29.96,West,269,0.0,-999.0,61,-99.99,,,0.00,weatherlink.com 1.10,2013-06-08 22:28:00,
2013-06-08 18:43:00,73.5,60.0,29.96,WNW,293,1.0,-999.0,63,-99.99,,,0.00,weatherlink.com 1.10,2013-06-08 22:43:00,
2013-06-08 18:58:00,73.9,61.0,29.97,SW,235,3.0,-999.0,64,-99.99,,,0.00,weatherlink.com 1.10,2013-06-08 22:58:00,
2013-06-08 19:13:00,74.1,61.0,29.97,South,180,2.0,-999.0,63,-99.99,,,0.00,weatherlink.com 1.10,2013-06-08 23:13:00,
2013-06-08 19:28:00,73.6,61.0,29.98,WSW,248,0.0,-999.0,65,-99.99,,,0.00,weatherlink.com 1.10,2013-06-08 23:28:00,
2013-06-08 19:43:00,73.4,61.0,29.98,WSW,248,0.0,-999.0,65,-99.99,,,0.00,weatherlink.com 1.10,2013-06-08 23:43:00,
2013-06-08 19:58:00,72.9,60.0,29.98,SSW,205,0.0,-999.0,64,-99.99,,,0.00,weatherlink.com 1.10,2013-06-08 23:58:00,
2013-06-08 20:13:00,72.0,60.0,29.99,SW,221,0.0,-999.0,66,-99.99,,,0.00,weatherlink.com 1.10,2013-06-09 00:13:00,
2013-06-08 20:28:00,71.0,60.0,30.00,SW,221,0.0,-999.0,68,-99.99,,,0.00,weatherlink.com 1.10,2013-06-09 00:28:00,
2013-06-08 20:43:00,69.8,60.0,30.00,SW,221,0.0,-999.0,70,-99.99,,,0.00,weatherlink.com 1.10,2013-06-09 00:43:00,
2013-06-08 20:58:00,68.5,59.0,30.01,SW,221,0.0,-999.0,72,-99.99,,,0.00,weatherlink.com 1.10,2013-06-09 00:58:00,
2013-06-08 21:14:00,67.1,59.0,30.01,SW,221,0.0,-999.0,74,-99.99,,,0.00,weatherlink.com 1.10,2013-06-09 01:14:00,
2013-06-08 21:29:00,65.6,58.0,30.02,SW,221,0.0,-999.0,77,-99.99,,,0.00,weatherlink.com 1.10,2013-06-09 01:29:00,
2013-06-08 21:44:00,64.2,58.0,30.03,SW,221,0.0,-999.0,79,-99.99,,,0.00,weatherlink.com 1.10,2013-06-09 01:44:00,
2013-06-08 21:59:00,63.0,57.0,30.04,SW,221,0.0,-999.0,81,-99.99,,,0.00,weatherlink.com 1.10,2013-06-09 01:59:00,
2013-06-08 22:14:00,61.7,57.0,30.05,SW,221,0.0,-999.0,83,-99.99,,,0.00,weatherlink.com 1.10,2013-06-09 02:14:00,
2013-06-08 22:29:00,60.8,56.0,30.05,SW,221,0.0,-999.0,85,-99.99,,,0.00,weatherlink.com 1.10,2013-06-09 02:29:00,
2013-06-08 22:44:00,59.9,55.0,30.06,SW,221,0.0,-999.0,85,-99.99,,,0.00,weatherlink.com 1.10,2013-06-09 02:44:00,
2013-06-08 22:59:00,59.0,55.0,30.06,SW,221,0.0,-999.0,87,-99.99,,,0.00,weatherlink.com 1.10,2013-06-09 02:59:00,
2013-06-08 23:14:00,58.3,55.0,30.07,SW,221,0.0,-999.0,87,-99.99,,,0.00,weatherlink.com 1.10,2013-06-09 03:14:00,
2013-06-08 23:29:00,57.6,54.0,30.07,SW,221,0.0,-999.0,88,-99.99,,,0.00,weatherlink.com 1.10,2013-06-09 03:29:00,
2013-06-08 23:44:00,57.0,54.0,30.08,SW,221,0.0,-999.0,89,-99.99,,,0.00,weatherlink.com 1.10,2013-06-09 03:44:00,
2013-06-08 23:59:00,56.6,54.0,30.08,SW,221,0.0,-999.0,89,-99.99,,,0.00,weatherlink.com 1.10,2013-06-09 03:59:00,